TimeAKST,TemperatureF,Dew PointF,Humidity,Sea Level PressureIn,VisibilityMPH,Wind Direction,Wind SpeedMPH,Gust SpeedMPH,PrecipitationIn,Events,Conditions,WindDirDegrees,DateUTC
12:58 AM,18.0,10.9,74,30.63,10.0,Calm,Calm,-,N/A,,Overcast,0,2013-11-17 09:58:00
1:58 AM,18.0,12.0,78,30.62,10.0,Calm,Calm,-,N/A,,Overcast,0,2013-11-17 10:58:00
2:58 AM,18.0,10.9,74,30.61,10.0,WNW,3.5,-,N/A,,Overcast,290,2013-11-17 11:58:00
3:58 AM,18.0,10.9,74,30.61,10.0,West,3.5,-,N/A,,Overcast,270,2013-11-17 12:58:00
4:58 AM,17.1,10.0,74,30.60,10.0,Calm,Calm,-,N/A,,Overcast,0,2013-11-17 13:58:00
5:58 AM,16.0,10.9,81,30.59,10.0,West,5.8,-,N/A,,Overcast,280,2013-11-17 14:58:00
6:58 AM,16.0,10.9,81,30.59,10.0,NW,5.8,-,N/A,,Overcast,320,2013-11-17 15:58:00
7:58 AM,15.1,10.0,80,30.60,10.0,NNW,5.8,-,N/A,,Overcast,330,2013-11-17 16:58:00
8:58 AM,15.1,9.0,77,30.60,10.0,NNW,6.9,-,N/A,,Overcast,340,2013-11-17 17:58:00
9:58 AM,15.1,10.9,84,30.60,10.0,NNW,10.4,-,N/A,,Overcast,330,2013-11-17 18:58:00
10:58 AM,14.0,10.0,84,30.60,9.0,North,10.4,-,N/A,,Partly Cloudy,350,2013-11-17 19:58:00
11:58 AM,14.0,10.9,88,30.60,9.0,North,9.2,-,N/A,,Clear,350,2013-11-17 20:58:00
12:58 PM,14.0,10.9,88,30.60,9.0,NNW,9.2,-,N/A,,Clear,340,2013-11-17 21:58:00
1:58 PM,15.1,12.0,88,30.60,9.0,NNW,6.9,-,N/A,,Mostly Cloudy,340,2013-11-17 22:58:00
2:58 PM,15.1,10.9,84,30.58,7.0,NNW,9.2,-,N/A,,Scattered Clouds,330,2013-11-17 23:58:00
3:58 PM,15.1,10.0,80,30.58,9.0,NW,6.9,-,N/A,,Overcast,320,2013-11-18 00:58:00
4:58 PM,16.0,9.0,74,30.57,9.0,WNW,5.8,-,N/A,,Overcast,300,2013-11-18 01:58:00
5:58 PM,16.0,10.0,77,30.56,10.0,NW,6.9,-,N/A,,Overcast,310,2013-11-18 02:58:00
6:58 PM,17.1,10.0,74,30.56,10.0,NW,6.9,-,N/A,,Overcast,310,2013-11-18 03:58:00
7:58 PM,17.1,9.0,71,30.56,10.0,WNW,5.8,-,N/A,,Overcast,300,2013-11-18 04:58:00
8:58 PM,15.1,8.1,74,30.55,10.0,NW,10.4,-,N/A,,Partly Cloudy,310,2013-11-18 05:58:00
9:58 PM,15.1,7.0,70,30.53,10.0,NW,10.4,-,N/A,,Mostly Cloudy,310,2013-11-18 06:58:00
10:58 PM,12.9,7.0,77,30.53,10.0,North,8.1,-,N/A,,Overcast,350,2013-11-18 07:58:00
11:58 PM,12.9,7.0,77,30.53,10.0,NW,10.4,-,N/A,,Scattered Clouds,320,2013-11-18 08:58:00